[[{"header":{"parameterUnit":"m.s-1","parameterCategory":1,"la1":30.2991,"la2":30.254,"lo1":-89.0895,"lo2":-89.0444,"dy":0.0017,"dx":0.0017,"nx":28,"ny":28,"refTime":"2024-06-20T21:00:00:Z","depth":0,"parameterNumber":2,"parameterNumberName":"U-component_of_WINDS"},"data":[0,0,0,0,0,0,0,0,0,0,0,0,0,0,0,0,0,0,0,0,0,0,0,0,0,0,0,0,0,0,0,0,0,0,0,0,0,0,0,0,0,0,0,0,0,0,0,0,0,0,0,0,0,0,0,0,0,0,-3.5411,-3.5411,0,-3.542,-3.542,-3.542,-3.5301,-3.5298,-3.5295,-3.5292,-3.5303,-3.5307,-3.531,0,0,0,0,0,0,0,0,0,0,0,0,0,-3.5297,-3.5299,-3.5411,-3.5411,-3.5411,-3.542,-3.542,-3.542,-3.5302,-3.5298,-3.5294,-3.529,-3.5302,-3.5306,-3.531,0,0,0,0,0,0,0,0,0,0,0,0,0,-3.533,-3.53,-3.5411,-3.5353,-3.5348,-3.5419,-3.542,-3.542,-3.5302,-3.5298,-3.5293,-3.5288,-3.5301,-3.5306,-3.5311,-3.5439,0,0,-3.5326,-3.5328,0,0,0,0,0,0,0,0,-3.5328,-3.5334,-3.5362,-3.5357,-3.5352,-3.5354,-3.5383,-3.5426,-3.5304,-3.532,-3.5291,-3.5286,-3.5325,-3.5327,-3.534,-3.544,-3.544,-3.5327,-3.533,-3.5332,-3.5333,0,0,0,0,0,0,0,-3.5326,-3.5333,-3.5414,-3.5362,-3.5356,-3.5328,-3.5328,-3.5391,-3.535,-3.5318,-3.531,-3.5312,-3.5321,-3.5335,-3.5339,-3.544,-3.5326,-3.5331,-3.5334,-3.5336,-3.5648,-3.5653,0,0,0,0,0,0,-3.5331,-3.5332,-3.5414,-3.5415,-3.5328,-3.5334,-3.5334,-3.5358,-3.5348,-3.5342,-3.5316,-3.5306,-3.5329,-3.5333,-3.5339,-3.549,-3.5332,-3.5336,-3.5339,-3.5643,-3.5649,-3.5655,0,0,0,0,0,0,-3.5329,-3.534,-3.5414,-3.5371,-3.5378,-3.5341,-3.537,-3.5361,-3.5375,-3.5347,-3.5339,-3.5338,-3.5325,-3.5332,-3.5415,-3.5489,-3.5339,-3.5343,-3.5637,-3.5645,-3.5652,-3.5792,0,0,0,0,0,0,-3.5326,-3.534,-3.5387,-3.5373,-3.5381,-3.5489,-3.5375,-3.5365,-3.5384,-3.5371,-3.5365,-3.536,-3.5322,-3.5408,-3.542,-3.5493,-3.5347,-3.563,-3.564,-3.565,-3.5781,-3.5804,-3.5823,0,0,0,0,0,-3.5323,-3.5426,-3.539,-3.54,-3.5439,-3.5494,-3.5498,-3.5452,-3.539,-3.5438,-3.542,-3.536,-3.5479,-3.5418,-3.543,-3.5505,-3.5625,-3.5637,-3.5649,-3.5771,-3.5799,-3.5823,0,0,0,0,0,0,-3.545,-3.5423,-3.5383,-3.5484,-3.5492,-3.5473,-3.5532,-3.5483,-3.5509,-3.5496,-3.5438,-3.5438,-3.5531,-3.5526,-3.5459,-3.563,-3.5541,-3.5556,-3.563,-3.5656,-3.5677,-3.5677,-3.5351,0,0,0,0,0,-3.549,-3.5535,-3.5509,-3.5602,-3.5608,-3.557,-3.5592,-3.5555,-3.5561,-3.5564,-3.5552,-3.5562,-3.5601,-3.5628,-3.5662,-3.5779,-3.5777,-3.5837,-3.5858,-3.5876,-3.589,-3.5954,-3.5981,-3.5694,-3.5694,-3.5694,0,0,-3.5573,-3.5564,-3.5596,-3.5627,-3.5629,-3.5679,-3.5573,-3.563,-3.5667,-3.5573,-3.5651,-3.5643,-3.565,-3.5751,-3.5795,-3.575,-3.5969,-3.5891,-3.5906,-3.591,-3.5969,-3.5996,-3.602,-3.5702,-3.5701,-3.5699,0,0,-3.575,-3.5747,-3.5824,-3.5828,-3.5832,-3.5806,-3.5825,-3.5814,-3.5805,-3.5882,-3.5814,-3.5857,-3.5926,-3.5934,-3.5947,-3.6129,-3.6076,-3.6142,-3.6254,-3.6317,-3.6339,-3.6359,-3.6426,-3.6451,-3.6156,-3.6156,-3.6156,0,-3.5853,-3.5924,-3.5871,-3.5932,-3.5949,-3.5866,-3.5945,-3.5952,-3.5967,-3.5982,-3.593,-3.6016,-3.6014,-3.6117,-3.6162,-3.6175,-3.6196,-3.6143,-3.634,-3.636,-3.6377,-3.644,-3.6466,-3.6164,-3.6163,-3.6163,-3.6162,0,-3.6051,-3.6102,-3.6164,-3.6181,-3.6204,-3.6275,-3.6234,-3.6264,-3.6226,-3.6207,-3.6288,-3.6283,-3.6316,-3.6338,-3.6301,-3.6436,-3.6408,-3.635,-3.626,-3.6414,-3.6472,-3.6496,-3.6176,-3.6173,-3.6171,-3.6169,0,0,-3.6309,-3.6296,-3.632,-3.6327,-3.6326,-3.6364,-3.6432,-3.6463,-3.6492,-3.6505,-3.6562,-3.6622,-3.6569,-3.6584,-3.6547,-3.6602,-3.675,-3.6537,-3.6536,-3.6578,-3.6901,-3.6946,-3.6975,-3.6714,-3.6718,-3.6721,-3.6901,0,-3.6482,-3.6595,-3.655,-3.6668,-3.6715,-3.6637,-3.6696,-3.6703,-3.6687,-3.6726,-3.6708,-3.6753,-3.6677,-3.6686,-3.6737,-3.6721,-3.6814,-3.6707,-3.6767,-3.677,-3.677,-3.7005,-3.7052,-3.7222,-3.6923,-3.6927,-3.693,0,-3.6699,-3.6722,-3.6844,-3.6836,-3.6854,-3.6908,-3.6934,-3.6971,-3.6978,-3.6963,-3.6981,-3.6933,-3.7,-3.691,-3.7003,-3.6932,-3.6954,-3.695,-3.6956,-3.6961,-3.686,-3.7018,-3.7275,-3.7301,-3.6965,-3.6962,-3.696,0,-3.6877,-3.6938,-3.7019,-3.7028,-3.702,-3.706,-3.7059,-3.706,-3.7083,-3.7107,-3.7121,-3.7153,-3.717,-3.7197,-3.716,-3.7097,-3.7259,-3.7165,-3.725,-3.7252,-3.7289,-3.7287,-3.7555,-3.7301,-3.7301,-3.73,-3.73,0,-3.7076,-3.7154,-3.7099,-3.715,-3.7236,-3.7184,-3.7271,-3.7262,-3.7264,-3.7313,-3.7248,-3.7295,-3.7242,-3.7285,-3.7257,-3.734,-3.7348,-3.7339,-3.7331,-3.7346,-3.7347,-3.736,-3.7348,-3.7307,-3.7305,-3.7304,-3.7303,0,-3.7289,-3.7255,-3.7339,-3.7325,-3.7324,-3.7388,-3.7377,-3.7424,-3.7403,-3.7466,-3.7477,-3.7446,-3.7493,-3.7459,-3.7505,-3.7486,-3.7596,-3.7571,-3.7594,-3.7588,-3.7675,-3.7669,-3.7962,-3.7999,-3.772,-3.7723,-3.7725,0,-3.7419,-3.7478,-3.747,-3.7497,-3.75,-3.7545,-3.7568,-3.752,-3.7547,-3.756,-3.7606,-3.7647,-3.7678,-3.7758,-3.774,-3.7777,-3.7752,-3.7853,-3.7758,-3.7771,-3.7756,-3.7754,-3.7761,-3.7873,-3.7876,-3.7879,-3.7881,0,-3.7654,-3.7635,-3.7669,-3.7699,-3.7728,-3.7749,-3.7765,-3.7792,-3.7743,-3.7777,-3.7824,-3.7848,-3.7896,-3.7939,-3.7969,-3.7969,-3.7919,-3.7911,-3.7933,-3.7949,-3.7961,-3.7958,-3.7648,-3.7904,-3.7902,-3.79,-3.7899,-3.7898,-3.7831,-3.788,-3.7883,-3.7924,-3.7931,-3.7948,-3.7992,-3.7977,-3.8015,-3.805,-3.802,-3.8077,-3.8085,-3.8119,-3.8126,-3.8172,-3.8131,-3.8162,-3.817,-3.8179,-3.8193,-3.7953,-3.8177,-3.8176,-3.8176,-3.8175,-3.8174,0,-3.8064,-3.8062,-3.81,-3.8125,-3.8158,-3.8106,-3.8121,-3.8153,-3.8204,-3.8215,-3.8246,-3.8302,-3.8344,-3.833,-3.8368,-3.8407,-3.8385,-3.8419,-3.8416,-3.8418,-3.8226,-3.8204,-3.8436,-3.8436,-3.8436,-3.8436,-3.8436,-3.8436,-3.8189,-3.827,-3.8251,-3.8336,-3.8333,-3.8389,-3.8402,-3.8419,-3.8427,-3.8492,-3.8526,-3.8516,-3.8518,-3.8555,-3.8592,-3.8587,-3.8605,-3.8648,-3.8635,-3.8457,-3.8431,-3.8406,-3.8385,-3.8652,-3.8652,-3.8822,-3.8824,-3.8825]},{"header":{"parameterUnit":"m.s-1","parameterCategory":1,"la1":30.2991,"la2":30.254,"lo1":-89.0895,"lo2":-89.0444,"dy":0.0017,"dx":0.0017,"nx":28,"ny":28,"refTime":"2024-06-20T21:00:00:Z","depth":0,"parameterNumber":3,"parameterNumberName":"V-component_of_WINDS"},"data":[0,0,0,0,0,0,0,0,0,0,0,0,0,0,0,0,0,0,0,0,0,0,0,0,0,0,0,0,0,0,0,0,0,0,0,0,0,0,0,0,0,0,0,0,0,0,0,0,0,0,0,0,0,0,0,0,0,0,1.6163,1.6164,0,1.618,1.618,1.6181,1.6225,1.6226,1.6227,1.6227,1.624,1.6239,1.6239,0,0,0,0,0,0,0,0,0,0,0,0,0,1.6166,1.6166,1.6163,1.6164,1.6164,1.618,1.618,1.6181,1.6224,1.6226,1.6227,1.6228,1.624,1.6239,1.6238,0,0,0,0,0,0,0,0,0,0,0,0,0,1.6172,1.6166,1.6163,1.6188,1.619,1.618,1.618,1.6181,1.6224,1.6226,1.6227,1.6228,1.624,1.6239,1.6238,1.6204,0,0,1.6236,1.6235,0,0,0,0,0,0,0,0,1.6172,1.6172,1.6184,1.6186,1.6189,1.6202,1.6186,1.6188,1.6224,1.6211,1.6227,1.6229,1.6226,1.6226,1.6226,1.6205,1.6205,1.6236,1.6235,1.6235,1.6235,0,0,0,0,0,0,0,1.6171,1.6171,1.617,1.6184,1.6187,1.6197,1.6199,1.6187,1.621,1.6212,1.6216,1.6217,1.6227,1.6227,1.6226,1.6206,1.6236,1.6235,1.6234,1.6234,1.6158,1.6156,0,0,0,0,0,0,1.6168,1.6171,1.6169,1.617,1.6184,1.6196,1.6198,1.6196,1.621,1.6214,1.6216,1.6219,1.6227,1.6227,1.6227,1.6188,1.6235,1.6234,1.6234,1.6159,1.6157,1.6156,0,0,0,0,0,0,1.6168,1.6167,1.6169,1.6172,1.6172,1.6194,1.6191,1.6196,1.6195,1.6213,1.6217,1.6211,1.6228,1.6228,1.621,1.6189,1.6234,1.6233,1.6161,1.6159,1.6157,1.6108,0,0,0,0,0,0,1.6168,1.6167,1.6155,1.6171,1.6172,1.6152,1.619,1.6195,1.6194,1.6199,1.621,1.6213,1.623,1.6211,1.6209,1.6188,1.6232,1.6163,1.616,1.6157,1.6112,1.6105,1.6099,0,0,0,0,0,1.6168,1.6139,1.6154,1.6154,1.6158,1.6151,1.6151,1.6173,1.6192,1.618,1.6192,1.6212,1.6192,1.6209,1.6207,1.6185,1.6164,1.6161,1.6158,1.6115,1.6106,1.6099,0,0,0,0,0,0,1.6118,1.6142,1.6158,1.6135,1.6141,1.6158,1.6143,1.6163,1.6162,1.6165,1.6191,1.6193,1.6171,1.6177,1.6195,1.6154,1.6182,1.6178,1.615,1.6142,1.6135,1.6133,1.6232,0,0,0,0,0,1.6105,1.6099,1.612,1.6097,1.6099,1.6121,1.6118,1.6135,1.6141,1.6143,1.6153,1.6158,1.6152,1.6148,1.6144,1.6114,1.6116,1.6099,1.6092,1.6086,1.6082,1.6066,1.6058,1.6145,1.6145,1.6145,0,0,1.6076,1.6089,1.6083,1.6087,1.6094,1.6085,1.6122,1.6112,1.6105,1.6141,1.6124,1.6133,1.6139,1.6115,1.6105,1.6119,1.6059,1.6082,1.6078,1.6076,1.6062,1.6053,1.6046,1.6142,1.6143,1.6143,0,0,1.602,1.603,1.6012,1.6018,1.6028,1.6043,1.6039,1.6054,1.6061,1.6046,1.6073,1.6065,1.6055,1.6059,1.6059,1.6007,1.6025,1.6005,1.5969,1.5953,1.5946,1.594,1.592,1.5913,1.6001,1.6001,1.6001,0,1.5983,1.5973,1.6,1.5988,1.5988,1.6023,1.6004,1.6009,1.6016,1.6015,1.6033,1.6022,1.6028,1.6005,1.5993,1.5993,1.5987,1.6002,1.5946,1.594,1.5934,1.5915,1.5908,1.5998,1.5998,1.5999,1.5999,0,1.5926,1.5919,1.5903,1.5911,1.5911,1.5895,1.5919,1.5915,1.5932,1.5944,1.5928,1.5938,1.5937,1.5933,1.5949,1.5912,1.5921,1.5941,1.5969,1.5923,1.5905,1.5898,1.5994,1.5995,1.5996,1.5997,0,0,1.5835,1.5861,1.5855,1.5859,1.5874,1.5868,1.5855,1.5855,1.5851,1.5856,1.5843,1.5836,1.5855,1.5856,1.5873,1.5859,1.5816,1.5882,1.5882,1.5867,1.5774,1.5757,1.5748,1.583,1.5829,1.5828,1.5773,0,1.5781,1.576,1.5785,1.5758,1.5751,1.5785,1.5774,1.5781,1.5793,1.5788,1.5802,1.5795,1.5822,1.5823,1.5811,1.5823,1.5797,1.5828,1.5817,1.5816,1.5811,1.5739,1.572,1.5668,1.5767,1.5766,1.5765,0,1.5714,1.5717,1.569,1.5708,1.5706,1.5695,1.5698,1.5693,1.5702,1.5712,1.5714,1.5735,1.5722,1.5752,1.5734,1.5754,1.5752,1.5757,1.5756,1.5753,1.5785,1.5732,1.5653,1.5644,1.5755,1.5755,1.5756,0,1.5648,1.5646,1.563,1.5633,1.5654,1.5645,1.5653,1.5664,1.5663,1.5665,1.5664,1.5665,1.5664,1.5664,1.5684,1.5704,1.5662,1.5694,1.5668,1.5668,1.5655,1.5655,1.5571,1.5658,1.5658,1.5658,1.5658,0,1.5583,1.5564,1.5601,1.559,1.5571,1.56,1.5579,1.5591,1.56,1.5592,1.5622,1.5613,1.5642,1.5636,1.5652,1.5634,1.5634,1.564,1.5644,1.5635,1.5634,1.5632,1.5635,1.5656,1.5657,1.5657,1.5657,0,1.5505,1.5529,1.5513,1.5535,1.554,1.5524,1.5542,1.5533,1.5549,1.5538,1.5537,1.556,1.5555,1.5577,1.5574,1.5585,1.5557,1.5568,1.5554,1.5556,1.5528,1.553,1.5438,1.5426,1.5522,1.5522,1.5521,0,1.546,1.5447,1.5468,1.5466,1.5473,1.5468,1.5468,1.5497,1.5495,1.5505,1.5494,1.5492,1.5491,1.5481,1.5497,1.5495,1.5505,1.5473,1.5505,1.5497,1.5502,1.5501,1.5499,1.5465,1.5464,1.5463,1.5462,0,1.5378,1.5391,1.539,1.5394,1.5394,1.5397,1.5403,1.5399,1.543,1.5426,1.5422,1.5422,1.5421,1.5418,1.542,1.5427,1.5449,1.5453,1.5447,1.5436,1.5428,1.543,1.5533,1.5454,1.5455,1.5456,1.5456,1.5456,1.5313,1.5303,1.5317,1.5315,1.5324,1.5329,1.5321,1.5337,1.5335,1.5337,1.5354,1.5347,1.5357,1.5363,1.5368,1.5361,1.5376,1.5367,1.5364,1.5361,1.5355,1.5432,1.5362,1.5362,1.5363,1.5363,1.5363,0,1.5231,1.5242,1.5241,1.5249,1.5247,1.5272,1.528,1.5277,1.527,1.5279,1.5278,1.5273,1.5271,1.5288,1.5287,1.5279,1.5289,1.5278,1.5277,1.5278,1.5343,1.5347,1.5269,1.5269,1.5269,1.5269,1.5269,1.5269,1.5187,1.5171,1.5186,1.5175,1.5186,1.518,1.5182,1.5187,1.5194,1.5188,1.5187,1.5199,1.5211,1.5212,1.521,1.5215,1.5212,1.5197,1.5205,1.5264,1.5273,1.5282,1.5286,1.5197,1.5196,1.514,1.5139,1.5139]}]]